[[{"header":{"parameterUnit":"m.s-1","parameterCategory":1,"la1":30.2991,"la2":30.254,"lo1":-89.0895,"lo2":-89.0444,"dx":0.0017,"dy":0.0017,"nx":28,"ny":28,"refTime":"2022-12-02T09:00:00:Z","depth":0,"parameterNumber":2,"parameterNumberName":"U-component_of_WINDS"},"data":[0,0,0,0,0,0,0,0,0,0,0,0,0,0,0,0,0,0,0,0,0,0,0,0,0,0,0,0,0,0,0,0,0,0,0,0,0,0,0,0,0,0,0,0,0,0,0,0,0,0,0,0,0,0,0,0,0,0,-3.289,-3.2891,0,-3.2965,-3.2965,-3.2966,-3.2846,-3.2842,-3.2838,-3.2834,-3.2914,-3.292,-3.2926,0,0,0,0,0,0,0,0,0,0,0,0,0,-3.2648,-3.2653,-3.289,-3.2891,-3.2892,-3.2965,-3.2966,-3.2967,-3.2847,-3.2842,-3.2837,-3.2832,-3.2912,-3.2919,-3.2926,0,0,0,0,0,0,0,0,0,0,0,0,0,-3.2741,-3.2655,-3.289,-3.2841,-3.2837,-3.2964,-3.2966,-3.2967,-3.2848,-3.2842,-3.2836,-3.283,-3.291,-3.2918,-3.2927,-3.3106,0,0,-3.2954,-3.2958,0,0,0,0,0,0,0,0,-3.2736,-3.275,-3.2847,-3.2845,-3.2841,-3.289,-3.2909,-3.3014,-3.285,-3.2844,-3.2834,-3.2827,-3.2911,-3.2919,-3.2947,-3.311,-3.3113,-3.2955,-3.2961,-3.2964,-3.2967,0,0,0,0,0,0,0,-3.273,-3.2746,-3.292,-3.2849,-3.2845,-3.2816,-3.2823,-3.2928,-3.2912,-3.2844,-3.2836,-3.2846,-3.2908,-3.2939,-3.2948,-3.3115,-3.2955,-3.2963,-3.2968,-3.2972,-3.3429,-3.3436,0,0,0,0,0,0,-3.2729,-3.2742,-3.2917,-3.2922,-3.2772,-3.2826,-3.2833,-3.288,-3.291,-3.2909,-3.2851,-3.284,-3.2927,-3.2938,-3.295,-3.3163,-3.2964,-3.2973,-3.2978,-3.3422,-3.3431,-3.3438,0,0,0,0,0,0,-3.2724,-3.2745,-3.2914,-3.2829,-3.2849,-3.2837,-3.2891,-3.2885,-3.2916,-3.2915,-3.2912,-3.2885,-3.2922,-3.2938,-3.3068,-3.3164,-3.2977,-3.2985,-3.3414,-3.3425,-3.3434,-3.359,0,0,0,0,0,0,-3.2717,-3.2744,-3.2812,-3.2832,-3.2854,-3.3031,-3.2897,-3.2891,-3.2931,-3.2917,-3.2947,-3.2946,-3.2918,-3.3056,-3.3077,-3.3173,-3.2992,-3.3406,-3.3419,-3.3431,-3.3577,-3.3604,-3.3628,0,0,0,0,0,-3.2709,-3.2853,-3.2816,-3.2838,-3.2938,-3.3037,-3.3049,-3.3014,-3.2939,-3.3008,-3.3007,-3.2945,-3.315,-3.307,-3.3093,-3.3194,-3.34,-3.3415,-3.343,-3.3565,-3.3599,-3.3628,0,0,0,0,0,0,-3.2846,-3.2855,-3.2814,-3.2968,-3.3003,-3.3016,-3.3101,-3.3051,-3.3108,-3.3093,-3.3048,-3.3056,-3.3196,-3.3207,-3.3118,-3.3369,-3.3262,-3.3283,-3.3357,-3.3389,-3.3415,-3.341,-3.2999,0,0,0,0,0,-3.2894,-3.2973,-3.2976,-3.3113,-3.3132,-3.3114,-3.3156,-3.3125,-3.3159,-3.3174,-3.3183,-3.3219,-3.3291,-3.3341,-3.3407,-3.3577,-3.3582,-3.3657,-3.3683,-3.3704,-3.3723,-3.3815,-3.3849,-3.3488,-3.3488,-3.3488,0,0,-3.2995,-3.3009,-3.3062,-3.3141,-3.3164,-3.3247,-3.3127,-3.322,-3.3282,-3.3188,-3.3312,-3.332,-3.3358,-3.3509,-3.3576,-3.3523,-3.3824,-3.3724,-3.3741,-3.3748,-3.3834,-3.3868,-3.3899,-3.3498,-3.3496,-3.3495,0,0,-3.3221,-3.324,-3.3355,-3.3381,-3.3416,-3.3403,-3.3431,-3.3452,-3.3454,-3.3577,-3.3508,-3.3581,-3.3707,-3.3737,-3.3769,-3.4006,-3.3951,-3.4029,-3.4165,-3.4255,-3.4284,-3.4309,-3.4395,-3.4426,-3.4047,-3.4048,-3.4048,0,-3.3343,-3.3465,-3.3422,-3.352,-3.3557,-3.3474,-3.3592,-3.3619,-3.3675,-3.3704,-3.3642,-3.3799,-3.3818,-3.3975,-3.4033,-3.4061,-3.4093,-3.4026,-3.4283,-3.4307,-3.433,-3.4412,-3.4444,-3.4057,-3.4056,-3.4055,-3.4054,0,-3.3613,-3.3698,-3.3788,-3.3843,-3.389,-3.3998,-3.3973,-3.4025,-3.3991,-3.3985,-3.4112,-3.4132,-3.4201,-3.4236,-3.4204,-3.439,-3.4356,-3.429,-3.4182,-3.4375,-3.4451,-3.4482,-3.407,-3.4067,-3.4064,-3.4062,0,0,-3.393,-3.3959,-3.3993,-3.4017,-3.405,-3.4116,-3.422,-3.4287,-3.4334,-3.4375,-3.4463,-3.4571,-3.451,-3.4546,-3.4516,-3.4594,-3.4783,-3.4518,-3.4519,-3.4569,-3.4991,-3.5042,-3.5079,-3.4746,-3.4751,-3.4756,-3.4988,0,-3.4156,-3.4335,-3.4299,-3.4475,-3.4554,-3.4476,-3.4567,-3.4598,-3.4594,-3.4662,-3.4658,-3.4736,-3.4649,-3.467,-3.4744,-3.4744,-3.4868,-3.4727,-3.4829,-3.4833,-3.4824,-3.5118,-3.5173,-3.5391,-3.5018,-3.5023,-3.5026,0,-3.4445,-3.4496,-3.468,-3.47,-3.4732,-3.4815,-3.4873,-3.4938,-3.4972,-3.4964,-3.5004,-3.4959,-3.5063,-3.4953,-3.5097,-3.5002,-3.5041,-3.5048,-3.5055,-3.5066,-3.4943,-3.5139,-3.546,-3.5494,-3.5072,-3.5069,-3.5065,0,-3.466,-3.4775,-3.49,-3.4923,-3.4949,-3.5009,-3.5023,-3.505,-3.5093,-3.5144,-3.5172,-3.5235,-3.5271,-3.5321,-3.5295,-3.5216,-3.5445,-3.5331,-3.5443,-3.5444,-3.5496,-3.5494,-3.5831,-3.5518,-3.5518,-3.5517,-3.5517,0,-3.4919,-3.5035,-3.4997,-3.5074,-3.5202,-3.5159,-3.5287,-3.5292,-3.5317,-3.5394,-3.533,-3.5404,-3.5364,-3.5435,-3.5415,-3.5539,-3.5555,-3.5553,-3.5546,-3.556,-3.556,-3.5586,-3.5571,-3.5526,-3.5524,-3.5522,-3.5521,0,-3.5182,-3.5161,-3.5292,-3.5306,-3.5312,-3.5406,-3.5418,-3.549,-3.5481,-3.558,-3.5601,-3.5588,-3.5669,-3.5647,-3.5735,-3.5721,-3.5878,-3.5851,-3.5867,-3.5861,-3.5974,-3.5965,-3.6342,-3.6389,-3.6045,-3.6048,-3.6051,0,-3.5349,-3.5436,-3.5459,-3.5506,-3.5524,-3.56,-3.5643,-3.5605,-3.5652,-3.5696,-3.5764,-3.5839,-3.5897,-3.603,-3.6029,-3.6096,-3.6072,-3.6199,-3.6082,-3.6093,-3.6076,-3.6073,-3.6082,-3.6224,-3.6228,-3.6231,-3.6233,0,-3.5649,-3.5634,-3.5698,-3.5759,-3.5811,-3.5858,-3.5898,-3.594,-3.5904,-3.5961,-3.6043,-3.6088,-3.6177,-3.6253,-3.6314,-3.6329,-3.6277,-3.627,-3.63,-3.6315,-3.6322,-3.6322,-3.5933,-3.6262,-3.6259,-3.6257,-3.6256,-3.6255,-3.5871,-3.5945,-3.5972,-3.6046,-3.6072,-3.6111,-3.618,-3.6179,-3.6245,-3.6315,-3.6288,-3.6382,-3.6413,-3.6489,-3.6512,-3.6586,-3.6538,-3.658,-3.6591,-3.6603,-3.6618,-3.6308,-3.6597,-3.6596,-3.6595,-3.6594,-3.6594,0,-3.6169,-3.6182,-3.625,-3.6308,-3.6366,-3.6309,-3.6351,-3.6404,-3.6487,-3.6519,-3.6577,-3.6671,-3.6744,-3.6749,-3.6817,-3.6876,-3.6853,-3.6895,-3.6892,-3.6896,-3.6657,-3.6625,-3.6912,-3.6912,-3.6912,-3.6912,-3.6912,-3.6912,-3.6331,-3.6454,-3.6442,-3.6577,-3.659,-3.6681,-3.6709,-3.6746,-3.6772,-3.6879,-3.6939,-3.694,-3.6963,-3.7032,-3.7097,-3.7096,-3.7126,-3.7177,-3.7168,-3.6945,-3.6913,-3.6883,-3.6853,-3.7183,-3.7184,-3.7402,-3.7404,-3.7405]},{"header":{"parameterUnit":"m.s-1","parameterCategory":1,"la1":30.2991,"la2":30.254,"lo1":-89.0895,"lo2":-89.0444,"dx":0.0017,"dy":0.0017,"nx":28,"ny":28,"refTime":"2022-12-02T09:00:00:Z","depth":0,"parameterNumber":3,"parameterNumberName":"V-component_of_WINDS"},"data":[0,0,0,0,0,0,0,0,0,0,0,0,0,0,0,0,0,0,0,0,0,0,0,0,0,0,0,0,0,0,0,0,0,0,0,0,0,0,0,0,0,0,0,0,0,0,0,0,0,0,0,0,0,0,0,0,0,0,-2.4711,-2.4711,0,-2.4674,-2.4673,-2.4673,-2.4645,-2.4644,-2.4644,-2.4644,-2.4604,-2.4603,-2.4603,0,0,0,0,0,0,0,0,0,0,0,0,0,-2.4754,-2.4754,-2.4711,-2.4711,-2.471,-2.4674,-2.4673,-2.4673,-2.4645,-2.4644,-2.4644,-2.4644,-2.4604,-2.4604,-2.4603,0,0,0,0,0,0,0,0,0,0,0,0,0,-2.4728,-2.4754,-2.4711,-2.4692,-2.469,-2.4674,-2.4673,-2.4673,-2.4645,-2.4644,-2.4644,-2.4644,-2.4605,-2.4604,-2.4602,-2.4603,0,0,-2.4599,-2.4598,0,0,0,0,0,0,0,0,-2.473,-2.4727,-2.4695,-2.4693,-2.4691,-2.4663,-2.4674,-2.4649,-2.4645,-2.4662,-2.4644,-2.4643,-2.4624,-2.4621,-2.4615,-2.4601,-2.4599,-2.4599,-2.4598,-2.4597,-2.4597,0,0,0,0,0,0,0,-2.4732,-2.4728,-2.4696,-2.4695,-2.4692,-2.4684,-2.468,-2.4669,-2.4646,-2.466,-2.4658,-2.4654,-2.4623,-2.4616,-2.4614,-2.4598,-2.4599,-2.4598,-2.4597,-2.4596,-2.4579,-2.4579,0,0,0,0,0,0,-2.4737,-2.473,-2.4698,-2.4695,-2.471,-2.4683,-2.4679,-2.4673,-2.4646,-2.4641,-2.4655,-2.4653,-2.4619,-2.4615,-2.4612,-2.4609,-2.4597,-2.4596,-2.4595,-2.4578,-2.4579,-2.4579,0,0,0,0,0,0,-2.4738,-2.4734,-2.4699,-2.4712,-2.4707,-2.4683,-2.4676,-2.4672,-2.4666,-2.4641,-2.4637,-2.4652,-2.4618,-2.4614,-2.4605,-2.4607,-2.4596,-2.4594,-2.4578,-2.4578,-2.4579,-2.4603,0,0,0,0,0,0,-2.4739,-2.4735,-2.4736,-2.4712,-2.4706,-2.4693,-2.4677,-2.4672,-2.4664,-2.4661,-2.4638,-2.4634,-2.4618,-2.4607,-2.4603,-2.4605,-2.4594,-2.4578,-2.4578,-2.4579,-2.4602,-2.4604,-2.4606,0,0,0,0,0,-2.4741,-2.4744,-2.4736,-2.4732,-2.4707,-2.4693,-2.469,-2.4671,-2.4664,-2.4664,-2.4648,-2.4635,-2.4607,-2.4606,-2.4602,-2.4604,-2.4577,-2.4578,-2.4579,-2.4601,-2.4604,-2.4606,0,0,0,0,0,0,-2.4769,-2.4741,-2.4731,-2.4728,-2.4713,-2.4689,-2.4688,-2.4675,-2.4662,-2.4661,-2.4638,-2.4633,-2.4625,-2.4613,-2.4612,-2.46,-2.459,-2.459,-2.4609,-2.4611,-2.4613,-2.4616,-2.4593,0,0,0,0,0,-2.4775,-2.4767,-2.4742,-2.4741,-2.4734,-2.4712,-2.4706,-2.4693,-2.4677,-2.467,-2.4653,-2.4638,-2.4625,-2.4617,-2.4605,-2.46,-2.4593,-2.4598,-2.4601,-2.4602,-2.4603,-2.4596,-2.4598,-2.4581,-2.4581,-2.4581,0,0,-2.4787,-2.477,-2.4767,-2.4746,-2.4734,-2.4724,-2.4708,-2.4699,-2.4692,-2.4669,-2.4658,-2.4645,-2.4626,-2.4618,-2.4613,-2.4608,-2.4605,-2.4603,-2.4605,-2.4604,-2.4597,-2.4599,-2.46,-2.4581,-2.4581,-2.4581,0,0,-2.4803,-2.4791,-2.4788,-2.4775,-2.4755,-2.474,-2.4739,-2.4716,-2.4706,-2.4695,-2.4677,-2.4667,-2.4647,-2.4633,-2.4623,-2.4631,-2.4618,-2.4627,-2.4639,-2.4633,-2.4634,-2.4635,-2.4636,-2.4637,-2.4628,-2.4628,-2.4628,0,-2.482,-2.4807,-2.4787,-2.4779,-2.477,-2.4748,-2.4743,-2.4731,-2.4709,-2.4702,-2.4696,-2.4668,-2.4653,-2.464,-2.4642,-2.4636,-2.4632,-2.463,-2.4636,-2.4636,-2.4637,-2.4638,-2.4638,-2.4629,-2.4629,-2.4629,-2.4629,0,-2.4828,-2.4818,-2.4818,-2.4796,-2.4786,-2.478,-2.4758,-2.475,-2.4737,-2.4722,-2.4709,-2.4691,-2.4673,-2.4669,-2.4656,-2.4653,-2.465,-2.464,-2.463,-2.464,-2.464,-2.4641,-2.4631,-2.463,-2.463,-2.463,0,0,-2.4862,-2.4828,-2.4828,-2.4817,-2.4792,-2.4784,-2.4776,-2.4758,-2.4751,-2.4735,-2.4726,-2.4708,-2.4698,-2.4687,-2.4672,-2.4667,-2.4672,-2.4657,-2.4656,-2.4659,-2.4665,-2.4672,-2.4673,-2.4663,-2.4663,-2.4663,-2.4666,0,-2.4874,-2.4859,-2.4839,-2.483,-2.482,-2.4797,-2.4789,-2.4773,-2.4758,-2.4746,-2.4729,-2.4716,-2.4704,-2.4697,-2.4691,-2.4673,-2.4672,-2.4672,-2.4653,-2.4652,-2.4658,-2.4673,-2.4681,-2.4685,-2.4666,-2.4666,-2.4666,0,-2.4886,-2.4871,-2.4861,-2.4835,-2.483,-2.4823,-2.4804,-2.4794,-2.4773,-2.4762,-2.4749,-2.4732,-2.472,-2.4711,-2.4692,-2.4693,-2.4683,-2.4672,-2.4672,-2.4669,-2.466,-2.467,-2.4686,-2.4687,-2.4666,-2.4666,-2.4666,0,-2.4911,-2.4888,-2.4878,-2.4869,-2.4839,-2.4835,-2.4822,-2.4801,-2.4791,-2.4773,-2.4766,-2.4748,-2.4737,-2.4723,-2.4701,-2.4696,-2.4684,-2.4674,-2.4673,-2.4674,-2.4672,-2.4672,-2.4686,-2.4667,-2.4667,-2.4667,-2.4667,0,-2.4925,-2.4919,-2.4888,-2.4882,-2.4873,-2.485,-2.4842,-2.4827,-2.4808,-2.4798,-2.4777,-2.4767,-2.474,-2.4726,-2.4709,-2.4695,-2.469,-2.468,-2.4676,-2.4682,-2.4683,-2.4675,-2.4674,-2.4667,-2.4667,-2.4667,-2.4667,0,-2.4951,-2.493,-2.4917,-2.489,-2.4882,-2.4877,-2.4853,-2.4845,-2.4828,-2.4814,-2.481,-2.4783,-2.4765,-2.4742,-2.4717,-2.4706,-2.4693,-2.4687,-2.4701,-2.4698,-2.4698,-2.4698,-2.4708,-2.4707,-2.4689,-2.4689,-2.4689,0,-2.4962,-2.4956,-2.4928,-2.4919,-2.4907,-2.4893,-2.4882,-2.4859,-2.4848,-2.4823,-2.4817,-2.4798,-2.4782,-2.4754,-2.4731,-2.4711,-2.4704,-2.4708,-2.4701,-2.4706,-2.4702,-2.4702,-2.4701,-2.471,-2.471,-2.4711,-2.4711,0,-2.4982,-2.4971,-2.4957,-2.4938,-2.4925,-2.4909,-2.4892,-2.4886,-2.4858,-2.4847,-2.4829,-2.4816,-2.4789,-2.477,-2.4747,-2.4732,-2.4716,-2.4713,-2.4712,-2.4718,-2.4726,-2.472,-2.4705,-2.4713,-2.4713,-2.4713,-2.4713,-2.4713,-2.4999,-2.4992,-2.4971,-2.4954,-2.4939,-2.4923,-2.4914,-2.4895,-2.488,-2.4857,-2.4843,-2.4825,-2.4802,-2.4769,-2.4755,-2.4739,-2.4733,-2.4732,-2.4731,-2.4731,-2.4732,-2.4728,-2.4735,-2.4734,-2.4734,-2.4734,-2.4734,0,-2.5017,-2.5001,-2.4987,-2.4963,-2.495,-2.4937,-2.4916,-2.4906,-2.489,-2.487,-2.4854,-2.4832,-2.4812,-2.4787,-2.4765,-2.4757,-2.4749,-2.4752,-2.4752,-2.4748,-2.4739,-2.4742,-2.4759,-2.4759,-2.4759,-2.4759,-2.4759,-2.4759,-2.5024,-2.5012,-2.4998,-2.4977,-2.4961,-2.4944,-2.4933,-2.4917,-2.4901,-2.4877,-2.4861,-2.4845,-2.4822,-2.4798,-2.4779,-2.4772,-2.4764,-2.4769,-2.476,-2.4752,-2.4749,-2.4747,-2.475,-2.4768,-2.4768,-2.477,-2.477,-2.477]}]]